Moses Lake, WA

10:08 PM PST on February 21, 2018 (GMT -0800)
Grant County International

Weather History for KMWH - November, 2012

Change the Weather History Date:

Saturday, November 17, 2012

  Actual Average Record
Temperature  
Mean Temperature 41 °F 37 °F  
Max Temperature 45 °F 45 °F 63 °F (2015)
Min Temperature 36 °F 29 °F 11 °F (2014)
Degree Days  
Heating Degree Days 24 28  
Month to date heating degree days 395 424  
Since 1 July heating degree days 920 1061  
Cooling Degree Days 0 0  
Month to date cooling degree days 0 0  
Year to date cooling degree days 719 615  
Moisture  
Dew Point 37 °F    
Average Humidity 88    
Maximum Humidity 92    
Minimum Humidity 83    
Precipitation  
Precipitation 0.06 in 0.04 in 0.30 in (1981)
Month to date precipitation 0.68 0.65  
Year to date precipitation 7.28 7.12  
Sea Level Pressure  
Sea Level Pressure 29.71 in    
Wind  
Wind Speed 5 mph (West)    
Max Wind Speed 17 mph    
Max Gust Speed 21 mph    
Visibility 8 miles    
Events Rain    
T = Trace of Precipitation, MM = Missing Value Source: NWS Daily Summary

Daily Weather History Graph

Daily Weather History Graph

Search for Another Location

Airport or City:

Trip Planner

Search our weather history database for the weather conditions in past years. The results will help you decide how hot, cold, wet, or windy it might be!

Date:

Astronomy

Nov. 17, 2012 Rise Set
Actual Time 7:05 AM PST 4:19 PM PST
Civil Twilight 6:31 AM PST 4:52 PM PST
Nautical Twilight 5:54 AM PST 5:30 PM PST
Astronomical Twilight 5:17 AM PST 6:06 PM PST
Moon 10:53 AM PST (11/17) 8:36 PM PST (11/17)
Length of Visible Light 10h 21m
Length of Day
9h 14m
Waxing Crescent, 21% of the Moon is Illuminated
Nov 17
Waxing Crescent
Nov 20
First Quarter
Nov 28
Full
Dec 6
Last Quarter
Dec 13
New

Hourly Weather History & Observations

Time (PST) Temp. Windchill Dew Point Humidity Pressure Visibility Wind Dir Wind Speed Gust Speed Precip Events Conditions
12:38 AM 39.2 °F - 35.6 °F 87% 29.89 in 10.0 mi Calm Calm - N/A   Overcast
12:52 AM 37.9 °F 34.4 °F 35.1 °F 89% 29.91 in 9.0 mi NNW 4.6 mph - N/A   Overcast
1:52 AM 39.0 °F 36.8 °F 35.1 °F 86% 29.89 in 9.0 mi NNW 3.5 mph - N/A   Overcast
2:39 AM 39.2 °F 35.9 °F 35.6 °F 87% 29.86 in 9.0 mi NW 4.6 mph - N/A   Overcast
2:52 AM 39.0 °F 36.8 °F 35.1 °F 86% 29.88 in 10.0 mi NW 3.5 mph - N/A   Overcast
3:25 AM 37.4 °F 34.9 °F 33.8 °F 87% 29.84 in 9.0 mi NW 3.5 mph - N/A   Overcast
3:52 AM 37.9 °F 34.4 °F 34.0 °F 86% 29.86 in 10.0 mi NNW 4.6 mph - N/A   Overcast
4:52 AM 37.0 °F 34.5 °F 34.0 °F 89% 29.83 in 7.0 mi NNE 3.5 mph - N/A   Overcast
5:52 AM 36.0 °F - 33.1 °F 89% 29.82 in 6.0 mi Calm Calm - N/A   Mostly Cloudy
6:52 AM 37.0 °F - 34.0 °F 89% 29.81 in 6.0 mi Calm Calm - N/A   Overcast
7:52 AM 37.0 °F - 34.0 °F 89% 29.80 in 4.0 mi Calm Calm - 0.02 in   Overcast
8:52 AM 37.9 °F - 35.1 °F 89% 29.77 in 6.0 mi Calm Calm - N/A   Overcast
9:52 AM 39.9 °F 36.7 °F 36.0 °F 86% 29.74 in 7.0 mi NNE 4.6 mph - 0.00 in Rain Light Rain
10:28 AM 41.0 °F 38.0 °F 37.4 °F 87% 29.70 in 8.0 mi North 4.6 mph - N/A   Overcast
10:52 AM 42.1 °F 40.2 °F 39.0 °F 89% 29.70 in 10.0 mi North 3.5 mph - N/A   Overcast
11:52 AM 45.0 °F - 39.9 °F 82% 29.67 in 10.0 mi Calm Calm - 0.00 in   Scattered Clouds
12:00 PM 44.6 °F 43.1 °F 39.2 °F 81% 29.64 in 10.0 mi West 3.5 mph - N/A   Mostly Cloudy
12:52 PM 45.0 °F - 39.9 °F 82% 29.63 in 10.0 mi Calm Calm - N/A   Mostly Cloudy
1:52 PM 45.0 °F 43.5 °F 39.0 °F 80% 29.62 in 10.0 mi SSW 3.5 mph - N/A   Overcast
2:52 PM 45.0 °F 43.5 °F 39.9 °F 82% 29.60 in 10.0 mi WSW 3.5 mph - 0.00 in   Overcast
3:16 PM 44.6 °F - 39.2 °F 81% 29.58 in 9.0 mi Calm Calm - N/A   Overcast
3:38 PM 44.6 °F - 39.2 °F 81% 29.57 in 9.0 mi Calm Calm - N/A   Overcast
3:45 PM 44.6 °F 43.1 °F 39.2 °F 81% 29.57 in 7.0 mi ESE 3.5 mph - 0.00 in Rain Light Rain
3:52 PM 44.1 °F 42.5 °F 39.9 °F 85% 29.59 in 7.0 mi East 3.5 mph - 0.00 in Rain Light Rain
4:52 PM 43.0 °F 39.5 °F 39.9 °F 89% 29.58 in 7.0 mi ESE 5.8 mph - 0.00 in   Mostly Cloudy
5:52 PM 43.0 °F 37.2 °F 39.9 °F 89% 29.60 in 7.0 mi WSW 10.4 mph - N/A   Overcast
6:06 PM 42.8 °F 38.0 °F 39.2 °F 87% 29.58 in 7.0 mi WSW 8.1 mph - 0.01 in   Overcast
6:52 PM 43.0 °F 38.8 °F 39.0 °F 86% 29.60 in 8.0 mi WSW 6.9 mph - 0.01 in   Overcast
7:52 PM 42.1 °F 37.1 °F 39.0 °F 89% 29.62 in 7.0 mi SW 8.1 mph - 0.00 in Rain Light Rain
8:52 PM 42.1 °F 34.9 °F 39.0 °F 89% 29.65 in 7.0 mi South 13.8 mph - 0.01 in Rain Light Rain
9:52 PM 42.1 °F 36.6 °F 39.0 °F 89% 29.67 in 7.0 mi South 9.2 mph - 0.02 in   Overcast
10:20 PM 42.8 °F 36.2 °F 39.2 °F 87% 29.66 in 8.0 mi South 12.7 mph - N/A   Overcast
10:52 PM 43.0 °F 37.2 °F 39.0 °F 86% 29.70 in 10.0 mi SSW 10.4 mph - N/A   Clear
11:52 PM 42.1 °F 35.7 °F 37.9 °F 85% 29.73 in 10.0 mi South 11.5 mph - N/A   Clear